Weather History for Columbus, OH

Change the Weather History Date:

Friday, January 4, 2013

  Actual Average Record
Temperature  
Mean Temperature 27 °F 30 °F  
Max Temperature 32 °F 37 °F 67 °F (1997)
Min Temperature 22 °F 23 °F -10 °F (1879)
Degree Days  
Heating Degree Days 38 35  
Month to date heating degree days 167 140  
Since 1 July heating degree days 2068 2131  
Cooling Degree Days 0 0  
Month to date cooling degree days 0 0  
Year to date cooling degree days 0 0  
Moisture  
Dew Point 19 °F    
Average Humidity 68    
Maximum Humidity 77    
Minimum Humidity 58    
Precipitation  
Precipitation 0.00 in 0.09 in 2.09 in (2004)
Month to date precipitation 0.04 0.38  
Year to date precipitation 0.04 0.38  
Snow  
Snow 0.00 in 0.30 in 5.20 in (1994)
Month to date snowfall 0.4 1.1  
Since 1 July snowfall 16.1 7.2  
Snow Depth 5.00 in    
Sea Level Pressure  
Sea Level Pressure 30.29 in    
Wind  
Wind Speed 13 mph (WSW)    
Max Wind Speed 24 mph    
Max Gust Speed 30 mph    
Visibility 10 miles    
Events      
T = Trace of Precipitation, MM = Missing Value Source: NWS Daily Summary

Daily Weather History Graph

Daily Weather History Graph

Search for Another Location

Airport:

Trip Planner

Search our weather history database for the weather conditions in past years. The results will help you decide how hot, cold, wet, or windy it might be!

Date:

Astronomy

Jan. 04, 2013 Rise Set
Actual Time 7:53 AM EST 5:19 PM EST
Civil Twilight 7:23 AM EST 5:50 PM EST
Nautical Twilight 6:49 AM EST 6:24 PM EST
Astronomical Twilight 6:16 AM EST 6:56 PM EST
Moon No Moon Rise 11:35 AM EST (1/4)
Length of Visible Light 10h 26m
Length of Day
9h 26m
Waning Gibbous, 55% of the Moon is Illuminated
Jan 4
Waning Gibbous
Jan 4
Last Quarter
Jan 11
New
Jan 18
First Quarter
Jan 26
Full

Hourly Weather History & Observations

Time (EST) Temp. Windchill Dew Point Humidity Pressure Visibility Wind Dir Wind Speed Gust Speed Precip Events Conditions
12:51 AM 30.0 °F 19.1 °F 21.0 °F 69% 30.27 in 10.0 mi West 15.0 mph 20.7 mph N/A   Overcast
1:51 AM 30.0 °F 17.5 °F 21.0 °F 69% 30.27 in 10.0 mi West 19.6 mph 24.2 mph N/A   Overcast
2:51 AM 30.0 °F 21.7 °F 21.9 °F 72% 30.28 in 10.0 mi SW 9.2 mph - N/A   Overcast
3:51 AM 30.0 °F 20.0 °F 21.9 °F 72% 30.28 in 10.0 mi SW 12.7 mph - N/A   Overcast
4:51 AM 30.0 °F 19.1 °F 21.9 °F 72% 30.27 in 7.0 mi WSW 15.0 mph 25.3 mph N/A   Overcast
5:51 AM 30.0 °F 21.7 °F 23.0 °F 75% 30.27 in 7.0 mi West 9.2 mph - N/A   Overcast
6:51 AM 30.0 °F 21.7 °F 21.9 °F 72% 30.27 in 7.0 mi SW 9.2 mph - N/A   Overcast
7:51 AM 28.0 °F 15.3 °F 19.0 °F 69% 30.29 in 10.0 mi WSW 18.4 mph - N/A   Mostly Cloudy
8:34 AM 26.6 °F 13.8 °F 17.6 °F 69% 30.28 in 10.0 mi West 17.3 mph 25.3 mph N/A   Scattered Clouds
8:51 AM 25.0 °F 13.1 °F 17.1 °F 72% 30.32 in 10.0 mi West 13.8 mph - N/A   Partly Cloudy
9:51 AM 26.1 °F 13.1 °F 18.0 °F 71% 30.33 in 10.0 mi WSW 17.3 mph - N/A   Partly Cloudy
10:51 AM 28.0 °F 17.0 °F 19.0 °F 69% 30.34 in 10.0 mi West 13.8 mph - N/A   Scattered Clouds
11:51 AM 28.9 °F 16.5 °F 19.9 °F 69% 30.32 in 10.0 mi WSW 18.4 mph 25.3 mph N/A   Partly Cloudy
12:51 PM 30.9 °F 18.4 °F 21.0 °F 67% 30.29 in 10.0 mi WSW 20.7 mph 27.6 mph N/A   Partly Cloudy
1:51 PM 32.0 °F 20.8 °F 19.9 °F 61% 30.27 in 10.0 mi WSW 17.3 mph - N/A   Partly Cloudy
2:51 PM 32.0 °F 19.8 °F 19.9 °F 61% 30.27 in 10.0 mi SW 20.7 mph - N/A   Partly Cloudy
3:51 PM 32.0 °F 20.8 °F 19.0 °F 59% 30.27 in 10.0 mi WSW 17.3 mph 26.5 mph N/A   Clear
4:51 PM 30.2 °F 20.2 °F 19.4 °F 64% 30.26 in 10.0 mi WSW 12.7 mph - N/A   Clear
5:51 PM 30.0 °F 19.5 °F 18.0 °F 61% 30.30 in 10.0 mi WSW 13.8 mph 24.2 mph N/A   Clear
6:51 PM 28.9 °F 18.6 °F 18.0 °F 64% 30.30 in 10.0 mi WSW 12.7 mph - N/A   Clear
7:51 PM 28.0 °F 19.3 °F 17.1 °F 63% 30.31 in 10.0 mi SW 9.2 mph - N/A   Clear
8:51 PM 27.0 °F 18.7 °F 17.1 °F 66% 30.31 in 10.0 mi SW 8.1 mph - N/A   Clear
9:51 PM 26.6 °F 21.2 °F 17.6 °F 69% 30.29 in 10.0 mi South 4.6 mph - N/A   Clear
10:51 PM 21.9 °F 14.5 °F 15.1 °F 75% 30.33 in 10.0 mi South 5.8 mph - N/A   Clear
11:51 PM 21.9 °F 15.7 °F 15.1 °F 75% 30.34 in 10.0 mi SSW 4.6 mph - N/A   Clear